FW5955 Weather Reports


time (UTC)temp
F
wind
direction
speed
knots
gust
knots
rain 1hr
in
rain 24hr
in
rain mn
in
humidity
%
barometer
mb
20260507033021 46 227 3.5 7.8 0.00 0.00 0.00 90 1013.6
20260507031511 47 225 3.5 8.7 0.00 0.00 0.00 90 1014.1
20260507030009 48 123 5.2 10.4 0.00 0.00 0.00 89 1014.2
20260507024506 48 219 6.1 11.3 0.00 0.00 0.00 88 1014.6
20260507023003 48 219 4.3 12.2 0.00 0.00 0.00 89 1015.1
20260507021613 47 242 4.3 12.2 0.00 0.00 0.00 90 1015.4
20260507020058 47 249 3.5 7.8 0.00 0.00 0.00 90 1015.6
20260507014559 47 252 3.5 9.6 0.00 0.00 0.00 91 1015.8
20260507013054 46 226 4.3 7.8 0.00 0.00 0.00 91 1016.0
20260507011557 46 242 5.2 10.4 0.00 0.00 0.00 91 1016.1
20260507010052 45 223 3.5 7.8 0.00 0.00 0.00 91 1016.3
20260507004551 46 169 2.6 7.8 0.00 0.00 0.00 90 1016.5
20260507003049 47 233 2.6 8.7 0.00 0.00 0.00 88 1016.5
20260507001548 48 235 6.1 11.3 0.00 0.00 0.00 89 1016.6
20260507000048 47 209 4.3 8.7 0.00 0.00 0.00 89 1016.6
20260506234604 48 224 4.3 9.6 0.00 0.00 0.00 88 1016.4
20260506233048 48 248 5.2 8.7 0.00 0.00 0.00 88 1016.3
20260506231547 48 243 4.3 9.6 0.00 0.00 0.00 88 1016.4
20260506230046 48 273 7.0 11.3 0.00 0.00 0.00 87 1016.5
20260506224548 49 219 6.1 9.6 0.00 0.00 0.00 86 1016.6
20260506223050 48 250 7.0 13.0 0.00 0.00 0.00 86 1016.7
20260506221544 48 230 7.0 11.3 0.00 0.00 0.00 86 1016.8
20260506220044 48 283 6.1 12.2 0.00 0.00 0.00 86 1016.6
20260506214544 47 207 5.2 11.3 0.00 0.00 0.00 86 1016.5
20260506213043 48 249 7.0 14.8 0.00 0.00 0.00 86 1016.6
20260506211542 48 233 6.1 13.9 0.00 0.00 0.00 85 1016.6
20260506210042 50 247 7.0 15.6 0.00 0.00 0.00 83 1016.2
20260506204551 50 203 8.7 15.6 0.00 0.00 0.00 84 1016.5
20260506203040 50 249 7.8 13.0 0.00 0.00 0.00 83 1016.8
20260506201540 52 186 7.8 15.6 0.00 0.00 0.00 82 1016.8
20260506200044 53 235 11.3 16.5 0.00 0.00 0.00 81 1016.9
20260506194547 53 270 9.6 19.1 0.00 0.00 0.00 81 1017.1
20260506193038 53 240 9.6 18.2 0.00 0.00 0.00 82 1017.1
20260506191537 52 224 12.2 18.2 0.00 0.00 0.00 82 1017.4
20260506190038 52 263 7.8 15.6 0.00 0.00 0.00 83 1017.4
20260506184536 52 217 8.7 19.1 0.00 0.00 0.00 83 1017.5
20260506183040 52 264 11.3 17.4 0.00 0.00 0.00 83 1017.8
20260506181536 53 219 8.7 17.4 0.00 0.00 0.00 82 1018.0
20260506180034 52 228 13.9 20.0 0.00 0.00 0.00 82 1018.1
20260506174533 52 246 11.3 20.0 0.00 0.00 0.00 83 1018.2
20260506173032 53 230 12.2 17.4 0.00 0.00 0.00 83 1018.0
20260506171518 52 236 12.2 19.1 0.00 0.00 0.00 83 1018.1
20260506170009 53 223 12.2 20.0 0.00 0.00 0.00 84 1017.9
20260506164508 52 238 12.2 21.7 0.00 0.00 0.00 85 1018.1
20260506163007 52 237 11.3 20.0 0.00 0.00 0.00 84 1018.0
20260506161506 52 237 13.9 22.6 0.00 0.00 0.00 85 1018.2
20260506160003 53 245 11.3 20.9 0.00 0.00 0.00 85 1018.2
20260506154601 52 220 11.3 20.9 0.00 0.00 0.00 86 1018.4
20260506153100 52 234 12.2 22.6 0.00 0.00 0.00 86 1018.4
20260506151609 51 226 11.3 19.1 0.00 0.00 0.00 87 1018.7
20260506144655 52 264 9.6 20.0 0.00 0.00 0.00 88 1018.6
20260506143057 50 239 9.6 18.2 0.00 0.00 0.00 89 1018.7
20260506141553 50 259 12.2 17.4 0.00 0.00 0.00 89 1018.7
20260506140103 51 204 10.4 18.2 0.00 0.00 0.00 88 1018.7
20260506134551 50 238 11.3 18.2 0.00 0.00 0.00 89 1018.6
20260506133050 49 235 9.6 16.5 0.00 0.00 0.00 90 1018.4
20260506131547 50 248 7.8 14.8 0.00 0.00 0.00 89 1018.3
20260506130058 51 214 11.3 18.2 0.00 0.00 0.00 89 1018.3
20260506124545 52 266 9.6 19.1 0.00 0.00 0.00 88 1018.3
20260506123042 52 255 9.6 17.4 0.00 0.00 0.00 88 1018.2
20260506121540 52 226 11.3 18.2 0.00 0.00 0.00 89 1018.3
20260506120038 51 176 8.7 16.5 0.00 0.00 0.00 90 1018.1
20260506114540 50 226 11.3 17.4 0.00 0.00 0.00 90 1018.0
20260506113030 49 234 8.7 20.0 0.00 0.00 0.00 91 1017.9
20260506111526 49 237 8.7 20.9 0.00 0.00 0.00 91 1018.0
20260506110024 49 249 9.6 18.2 0.00 0.00 0.00 92 1017.9
20260506104520 48 254 8.7 20.9 0.00 0.00 0.00 93 1017.8
20260506103018 47 269 11.3 17.4 0.00 0.00 0.00 93 1017.7
20260506101527 47 232 8.7 16.5 0.00 0.00 0.00 94 1017.7
20260506100013 46 286 10.4 20.9 0.00 0.00 0.00 94 1017.6
20260506094516 46 255 10.4 18.2 0.00 0.00 0.00 94 1017.4
20260506093010 45 235 8.7 15.6 0.00 0.00 0.00 94 1017.2
20260506091508 45 229 9.6 17.4 0.00 0.00 0.00 94 1017.1
20260506090009 46 249 9.6 19.1 0.00 0.00 0.00 94 1016.9
20260506084515 46 286 8.7 20.9 0.00 0.00 0.00 94 1016.7
20260506083002 46 257 10.4 18.2 0.00 0.00 0.00 94 1016.7
20260506081502 46 248 8.7 16.5 0.00 0.00 0.00 94 1016.6
20260506073104 46 257 9.6 17.4 0.00 0.00 0.00 94 1016.7
20260506071609 46 246 7.8 15.6 0.00 0.00 0.00 94 1016.8
20260506061548 46 244 8.7 16.5 0.00 0.00 0.00 94 1016.9
20260506044540 46 222 7.0 16.5 0.00 0.00 0.00 94 1016.9
20260506043039 46 245 7.0 13.0 0.00 0.00 0.00 94 1016.8
20260506041551 46 248 7.8 13.0 0.00 0.00 0.00 94 1016.9
20260506040038 46 259 8.7 17.4 0.00 0.00 0.00 94 1016.8
20260506034534 46 267 7.8 15.6 0.00 0.00 0.00 93 1016.9